Location: Peebles
(55.6412°N, 3.1714°W)
Time: 22:14:24
(UTC+00:00)

FENGYUN 1C DEB - Pass Details

Date: 13 February 2023
Orbit: 707 x 862 km, 98.5° (Epoch: 07 November)

Event Time Altitude Azimuth Distance (km) Brightness Sun altitude
Rises 19:06:08 0° 156° (SSE) 3,403 ? -16.4°
Reaches altitude 10° 19:08:30 10° 155° (SSE) 2,473 ? -16.8°
Maximum altitude 19:14:01 78° 71° (ENE) 871 ? -17.5°
Drops below altitude 10° 19:19:29 10° 346° (NNW) 2,456 ? -18.3°
Sets 19:21:50 0° 345° (NNW) 3,378 ? -18.6°
